Location: Killam
(52.7910°N, 111.8608°W)
Time: 12:34:56
(UTC+00:00)

AO-73 - Pass Details

Date: 14 March 2026
Orbit: 514 x 567 km, 97.8° (Epoch: 13 April)

Event Time Altitude Azimuth Distance (km) Brightness Sun altitude
Rises 10:34:46 0° 23° (NNE) 2,682 ? -27.7°
Maximum altitude 10:40:24 26° 94° (E) 1,053 ? -27.0°
Enters shadow 10:40:58 25° 110° (ESE) 1,079 ? -26.9°
